sat.trackr.live / text

‹ back to catalog

STARLINK-34414

NORAD 64620 · 2025-137AC

PAYLOAD ACTIVE UNKNOWN

§ Identity

Operator
Country
US
Launch date
2025-06-25
Launch site
AFETR
Launch vehicle
Mass (kg)
RCS (m²)

Purposes: comms

External: N2YO · Heavens-Above · Gunter

§ Orbital elements

Epoch: 2026-05-24T22:08:54.645216Z

Period
94.10 min
Inclination
53.1606°
Eccentricity
0.0001299
Mean motion
15.30209162 rev/d
Perigee alt
474.3 km
Apogee alt
476.1 km
Semi-major
6,853.3 km
B*
5.0311e-4
RAAN
341.3377°
Arg perigee
96.6984°
Mean anomaly
263.4164°
Rev number
5,240

§ Raw data

STARLINK-344141 64620U 25137AC  26144.92285469  .00014575  00000+0  50311-3 0  99922 64620  53.1606 341.3377 0001299  96.6984 263.4164 15.30209162 52408

JSON: /api/v1/satellites/64620 · /tle

For live sub-satellite position, see the globe view (requires WebGL).

§ Visibility from observer

Set your observer location to see the next 7 days of passes ≥ 10°. The values pass through the URL so the page stays shareable.

No JS? Fill the form by hand. The geolocation button needs JavaScript.